Time,TemperatureF,DewpointF,PressureIn,WindDirection,WindDirectionDegrees,WindSpeedMPH,WindSpeedGustMPH,Humidity,HourlyPrecipIn,Conditions,Clouds,dailyrainin,SolarRadiationWatts/m^2,SoftwareType,DateUTC
2013-02-12 00:01:00,41.0,27.0,-100.00,WNW,283,3.0,6.0,58,0.00,,,0.01,0.000000,,2013-02-12 06:01:00,
2013-02-12 00:32:00,40.0,26.0,-100.00,West,281,3.0,7.0,58,0.00,,,0.01,0.000000,,2013-02-12 06:32:00,
2013-02-12 00:42:00,40.0,26.0,-100.00,West,281,3.0,7.0,58,0.00,,,0.01,0.000000,,2013-02-12 06:42:00,
2013-02-12 00:52:00,40.0,26.0,-100.00,West,281,3.0,7.0,58,0.00,,,0.01,0.000000,,2013-02-12 06:52:00,
2013-02-12 01:01:00,40.0,26.0,-100.00,West,281,3.0,7.0,58,0.00,,,0.01,0.000000,,2013-02-12 07:01:00,
2013-02-12 01:32:00,39.0,27.0,-100.00,WNW,287,3.0,7.0,61,0.00,,,0.00,0.000000,,2013-02-12 07:32:00,
2013-02-12 01:42:00,39.0,27.0,-100.00,WNW,287,3.0,7.0,61,0.00,,,0.00,0.000000,,2013-02-12 07:42:00,
2013-02-12 01:52:00,39.0,27.0,-100.00,WNW,287,3.0,7.0,61,0.00,,,0.00,0.000000,,2013-02-12 07:52:00,
2013-02-12 02:01:00,39.0,27.0,-100.00,WNW,287,3.0,7.0,61,0.00,,,0.00,0.000000,,2013-02-12 08:01:00,
2013-02-12 02:32:00,39.0,27.0,-100.00,WNW,301,4.0,6.0,62,0.00,,,0.00,0.000000,,2013-02-12 08:32:00,
2013-02-12 02:42:00,39.0,27.0,-100.00,WNW,301,4.0,6.0,62,0.00,,,0.00,0.000000,,2013-02-12 08:42:00,
2013-02-12 02:52:00,39.0,27.0,-100.00,WNW,301,4.0,6.0,62,0.00,,,0.00,0.000000,,2013-02-12 08:52:00,
2013-02-12 03:01:00,39.0,27.0,-100.00,WNW,301,4.0,6.0,62,0.00,,,0.00,0.000000,,2013-02-12 09:01:00,
2013-02-12 03:32:00,39.0,27.0,-100.00,WNW,295,1.0,6.0,62,0.00,,,0.00,0.000000,,2013-02-12 09:32:00,
2013-02-12 03:42:00,39.0,27.0,-100.00,WNW,295,1.0,6.0,62,0.00,,,0.00,0.000000,,2013-02-12 09:42:00,
2013-02-12 03:52:00,39.0,27.0,-100.00,WNW,295,1.0,6.0,62,0.00,,,0.00,0.000000,,2013-02-12 09:52:00,
2013-02-12 04:01:00,39.0,27.0,-100.00,WNW,295,1.0,6.0,62,0.00,,,0.00,0.000000,,2013-02-12 10:01:00,
2013-02-12 04:32:00,37.0,26.0,-100.00,WSW,243,1.0,2.0,65,0.00,,,0.00,0.000000,,2013-02-12 10:32:00,
2013-02-12 04:43:00,37.0,26.0,-100.00,WSW,243,1.0,2.0,65,0.00,,,0.00,0.000000,,2013-02-12 10:43:00,
2013-02-12 04:52:00,37.0,26.0,-100.00,WSW,243,1.0,2.0,65,0.00,,,0.00,0.000000,,2013-02-12 10:52:00,
2013-02-12 05:01:00,37.0,26.0,-100.00,WSW,243,1.0,2.0,65,0.00,,,0.00,0.000000,,2013-02-12 11:01:00,
2013-02-12 05:32:00,36.0,26.0,-100.00,East,91,2.0,3.0,68,0.00,,,0.00,0.000000,,2013-02-12 11:32:00,
2013-02-12 05:42:00,36.0,26.0,-100.00,East,91,2.0,3.0,68,0.00,,,0.00,0.000000,,2013-02-12 11:42:00,
2013-02-12 05:52:00,36.0,26.0,-100.00,East,91,2.0,3.0,68,0.00,,,0.00,0.000000,,2013-02-12 11:52:00,
2013-02-12 06:01:00,36.0,26.0,-100.00,East,91,2.0,3.0,68,0.00,,,0.00,0.000000,,2013-02-12 12:01:00,
2013-02-12 06:32:00,34.0,28.0,-100.00,SW,233,1.0,3.0,79,0.00,,,0.00,0.000000,,2013-02-12 12:32:00,
2013-02-12 06:42:00,34.0,28.0,-100.00,SW,233,1.0,3.0,79,0.00,,,0.00,0.000000,,2013-02-12 12:42:00,
2013-02-12 06:53:00,34.0,28.0,-100.00,SW,233,1.0,3.0,79,0.00,,,0.00,0.000000,,2013-02-12 12:53:00,
2013-02-12 07:01:00,34.0,28.0,-100.00,SW,233,1.0,3.0,79,0.00,,,0.00,0.000000,,2013-02-12 13:01:00,
2013-02-12 07:32:00,34.0,27.0,-100.00,ENE,70,2.0,2.0,75,0.00,,,0.00,5.000000,,2013-02-12 13:32:00,
2013-02-12 07:42:00,34.0,27.0,-100.00,ENE,70,2.0,2.0,75,0.00,,,0.00,5.000000,,2013-02-12 13:42:00,
2013-02-12 07:52:00,34.0,27.0,-100.00,ENE,70,2.0,2.0,75,0.00,,,0.00,5.000000,,2013-02-12 13:52:00,
2013-02-12 08:01:00,34.0,27.0,-100.00,ENE,70,2.0,2.0,75,0.00,,,0.00,5.000000,,2013-02-12 14:01:00,
2013-02-12 08:32:00,37.0,33.0,-100.00,ENE,63,2.0,3.0,85,0.00,,,0.00,51.000000,,2013-02-12 14:32:00,
2013-02-12 08:42:00,37.0,33.0,-100.00,ENE,63,2.0,3.0,85,0.00,,,0.00,51.000000,,2013-02-12 14:42:00,
2013-02-12 08:52:00,37.0,33.0,-100.00,ENE,63,2.0,3.0,85,0.00,,,0.00,51.000000,,2013-02-12 14:52:00,
2013-02-12 09:02:00,37.0,33.0,-100.00,ENE,63,2.0,3.0,85,0.00,,,0.00,51.000000,,2013-02-12 15:02:00,
2013-02-12 09:32:00,46.0,33.0,-100.00,East,80,4.0,8.0,61,0.00,,,0.00,241.000000,,2013-02-12 15:32:00,
2013-02-12 10:32:00,50.0,31.0,-100.00,NE,43,5.0,9.0,47,0.00,,,0.00,471.000000,,2013-02-12 16:32:00,
2013-02-12 11:01:00,50.0,31.0,-100.00,NE,43,5.0,9.0,47,0.00,,,0.00,471.000000,,2013-02-12 17:01:00,
2013-02-12 11:32:00,51.0,27.0,-100.00,ENE,68,3.0,9.0,39,0.00,,,0.00,486.000000,,2013-02-12 17:32:00,
2013-02-12 11:42:00,51.0,27.0,-100.00,ENE,68,3.0,9.0,39,0.00,,,0.00,486.000000,,2013-02-12 17:42:00,
2013-02-12 11:52:00,51.0,27.0,-100.00,ENE,68,3.0,9.0,39,0.00,,,0.00,486.000000,,2013-02-12 17:52:00,
2013-02-12 12:01:00,51.0,27.0,-100.00,ENE,68,3.0,9.0,39,0.00,,,0.00,486.000000,,2013-02-12 18:01:00,
2013-02-12 13:32:00,51.0,26.0,-100.00,NNE,33,4.0,7.0,38,-99.99,,,-99.99,248.000000,,2013-02-12 19:32:00,
2013-02-12 13:42:00,51.0,26.0,-100.00,NNE,33,4.0,7.0,38,-99.99,,,-99.99,248.000000,,2013-02-12 19:42:00,
2013-02-12 13:52:00,51.0,26.0,-100.00,NNE,33,4.0,7.0,38,-99.99,,,-99.99,248.000000,,2013-02-12 19:52:00,
2013-02-12 14:01:00,51.0,26.0,-100.00,NNE,33,4.0,7.0,38,-99.99,,,-99.99,248.000000,,2013-02-12 20:01:00,
2013-02-12 15:32:00,49.0,25.0,-100.00,NNE,12,4.0,8.0,39,-99.99,,,0.00,97.000000,,2013-02-12 21:32:00,
2013-02-12 15:42:00,49.0,25.0,-100.00,NNE,12,4.0,8.0,39,-99.99,,,0.00,97.000000,,2013-02-12 21:42:00,
2013-02-12 15:52:00,49.0,25.0,-100.00,NNE,12,4.0,8.0,39,-99.99,,,0.00,97.000000,,2013-02-12 21:52:00,
2013-02-12 16:01:00,49.0,25.0,-100.00,NNE,12,4.0,8.0,39,-99.99,,,0.00,97.000000,,2013-02-12 22:01:00,
2013-02-12 16:32:00,49.0,26.0,-100.00,NE,55,3.0,10.0,40,0.00,,,0.00,108.000000,,2013-02-12 22:32:00,
2013-02-12 16:42:00,49.0,26.0,-100.00,NE,55,3.0,10.0,40,0.00,,,0.00,108.000000,,2013-02-12 22:42:00,
2013-02-12 16:52:00,49.0,26.0,-100.00,NE,55,3.0,10.0,40,0.00,,,0.00,108.000000,,2013-02-12 22:52:00,
2013-02-12 17:01:00,49.0,26.0,-100.00,NE,55,3.0,10.0,40,0.00,,,0.00,108.000000,,2013-02-12 23:01:00,
2013-02-12 17:32:00,47.0,26.0,-100.00,East,87,2.0,6.0,43,0.00,,,0.00,33.000000,,2013-02-12 23:32:00,
2013-02-12 17:42:00,47.0,26.0,-100.00,East,87,2.0,6.0,43,0.00,,,0.00,33.000000,,2013-02-12 23:42:00,
2013-02-12 17:52:00,47.0,26.0,-100.00,East,87,2.0,6.0,43,0.00,,,0.00,33.000000,,2013-02-12 23:52:00,
2013-02-12 18:02:00,47.0,26.0,-100.00,East,87,2.0,6.0,43,0.00,,,0.00,33.000000,,2013-02-13 00:02:00,
2013-02-12 18:32:00,46.0,27.0,-100.00,ENE,70,1.0,3.0,47,0.00,,,0.00,1.000000,,2013-02-13 00:32:00,
2013-02-12 18:42:00,46.0,27.0,-100.00,ENE,70,1.0,3.0,47,0.00,,,0.00,1.000000,,2013-02-13 00:42:00,
2013-02-12 18:52:00,46.0,27.0,-100.00,ENE,70,1.0,3.0,47,0.00,,,0.00,1.000000,,2013-02-13 00:52:00,
2013-02-12 19:01:00,46.0,27.0,-100.00,ENE,70,1.0,3.0,47,0.00,,,0.00,1.000000,,2013-02-13 01:01:00,
2013-02-12 20:42:00,44.0,29.0,-100.00,NNE,19,3.0,4.0,55,-99.99,,,0.00,0.000000,,2013-02-13 02:42:00,
2013-02-12 20:52:00,44.0,29.0,-100.00,NNE,19,3.0,4.0,55,-99.99,,,0.00,0.000000,,2013-02-13 02:52:00,
2013-02-12 21:01:00,44.0,29.0,-100.00,NNE,19,3.0,4.0,55,-99.99,,,0.00,0.000000,,2013-02-13 03:01:00,
2013-02-12 21:32:00,44.0,28.0,-100.00,NE,50,2.0,4.0,52,0.00,,,0.00,0.000000,,2013-02-13 03:32:00,
2013-02-12 21:42:00,44.0,28.0,-100.00,NE,50,2.0,4.0,52,0.00,,,0.00,0.000000,,2013-02-13 03:42:00,
2013-02-12 21:52:00,44.0,28.0,-100.00,NE,50,2.0,4.0,52,0.00,,,0.00,0.000000,,2013-02-13 03:52:00,
2013-02-12 22:01:00,44.0,28.0,-100.00,NE,50,2.0,4.0,52,0.00,,,0.00,0.000000,,2013-02-13 04:01:00,
2013-02-12 22:32:00,44.0,29.0,-100.00,NE,34,3.0,5.0,56,0.00,,,0.00,0.000000,,2013-02-13 04:32:00,
2013-02-12 22:42:00,44.0,29.0,-100.00,NE,34,3.0,5.0,56,0.00,,,0.00,0.000000,,2013-02-13 04:42:00,
2013-02-12 22:52:00,44.0,29.0,-100.00,NE,34,3.0,5.0,56,0.00,,,0.00,0.000000,,2013-02-13 04:52:00,
2013-02-12 23:01:00,44.0,29.0,-100.00,NE,34,3.0,5.0,56,0.00,,,0.00,0.000000,,2013-02-13 05:01:00,
2013-02-12 23:32:00,43.0,29.0,-100.00,East,79,2.0,5.0,58,0.00,,,0.00,0.000000,,2013-02-13 05:32:00,
2013-02-12 23:42:00,43.0,29.0,-100.00,East,79,2.0,5.0,58,0.00,,,0.00,0.000000,,2013-02-13 05:42:00,
2013-02-12 23:52:00,43.0,29.0,-100.00,East,79,2.0,5.0,58,0.00,,,0.00,0.000000,,2013-02-13 05:52:00,